sat.trackr.live / text

‹ back to catalog

2024-205D

NORAD 61897 · 2024-205D

PAYLOAD ACTIVE UNKNOWN

§ Identity

Operator
Country
PRC
Launch date
2024-11-11
Launch site
JSC
Launch vehicle
Mass (kg)
RCS (m²)

External: N2YO · Heavens-Above · Gunter

§ Orbital elements

Epoch: 2026-09-22T23:39:15.973920Z

Period
94.80 min
Inclination
97.4014°
Eccentricity
0.0013189
Mean motion
15.18967210 rev/d
Perigee alt
499.9 km
Apogee alt
518.0 km
Semi-major
6,887.1 km
B*
1.8979e-4
RAAN
335.4644°
Arg perigee
79.1874°
Mean anomaly
281.0844°
Rev number
10,312

§ Raw data

2024-205D1 61897U 24205D   26265.98560155  .00003908  00000+0  18979-3 0  99902 61897  97.4014 335.4644 0013189  79.1874 281.0844 15.18967210103129

JSON: /api/v1/satellites/61897 · /tle

For live sub-satellite position, see the globe view (requires WebGL).

§ Visibility from observer

Set your observer location to see the next 7 days of passes ≥ 10°. The values pass through the URL so the page stays shareable.

No JS? Fill the form by hand. The geolocation button needs JavaScript.